Location: Bad Salzschlirf
(50.3750°N, 9.3000°E)
Time: 04:24:32
(UTC+02:00)

ISS - Pass Details

Date: 10 July 2025
Orbit: 413 x 417 km, 51.6° (Epoch: 12 July)

Event Time Altitude Azimuth Distance (km) Brightness Sun altitude
Rises 22:45:50 0° 240° (WSW) 2,344 0.2 -9.1°
Reaches altitude 10° 22:47:56 10° 237° (WSW) 1,485 -0.9 -9.3°
Maximum altitude 22:51:13 59° 157° (SSE) 483 -3.8 -9.6°
Drops below altitude 10° 22:54:31 10° 77° (ENE) 1,492 -1.2 -9.9°
Sets 22:56:38 0° 74° (ENE) 2,358 -0.1 -10.1°
